This demonstration page uses our WeatherBlox Daily Observations layout. Learn more.

Left ArrowRight Arrow

41.86663, -103.66717

Hourly Observations for September 13, 2020

Temp ( °F °C ) Dew Point ( °F °C ) Humidity (%) Winds ( mph kmh ) Pressure ( in mb ) Visibility ( mi km ) Precip ( " mm )
12:53 am 00:53 Clear 49 9.4 41 5 74 74 E 7 11 30.07 1018 10 16.0934 0 0
1:53 am 01:53 Clear 46 7.8 40 4.4 79 79 NW 5 7 30.07 1018 10 16.0934 0 0
2:53 am 02:53 Clear 46 7.8 41 5 83 83 N 3 6 30.06 1018 10 16.0934 0 0
3:53 am 03:53 Clear 42 5.6 40 4.4 92 92 N 5 7 30.07 1018 10 16.0934 0 0
4:53 am 04:53 Clear 43 6.1 40 4.4 89 89 N 5 7 30.07 1018 10 16.0934 0 0
5:53 am 05:53 Clear 43 6.1 39 3.9 86 86 NE 3 6 30.08 1019 10 16.0934 0 0
6:53 am 06:53 Sunny 44 6.7 39 3.9 83 83 Calm 30.11 1020 10 16.0934 0 0
7:53 am 07:53 Sunny 52 11.1 44 6.7 75 75 Calm 30.12 1020 10 16.0934 0 0
8:53 am 08:53 Sunny 59 15 43 6.1 56 56 SE 3 6 30.12 1020 10 16.0934 0 0
9:53 am 09:53 Sunny 67 19.4 45 7.2 45 45 Calm 30.11 1020 10 16.0934 0 0
10:53 am 10:53 Sunny 75 23.9 44 6.7 33 33 NW 5 7 30.11 1020 10 16.0934 0 0
11:53 am 11:53 Sunny 80 26.7 40 4.4 24 24 NW 5 7 30.09 1019 10 16.0934 0 0
12:53 pm 12:53 Sunny 84 28.9 39 3.9 20 20 W 7 11 30.07 1018 10 16.0934 0 0
1:53 pm 13:53 Sunny 88 31.1 36 2.2 16 16 VRB 5 7 30.06 1018 10 16.0934 0 0
2:53 pm 14:53 Sunny 88 31.1 33 0.6 14 14 S 5 7 30.05 1018 10 16.0934 0 0
3:53 pm 15:53 Sunny 89 31.7 28 -2.2 11 11 NW 6 9 30.05 1018 10 16.0934 0 0
4:53 pm 16:53 Sunny 87 30.6 33 0.6 14 14 S 5 7 30.06 1018 10 16.0934 0 0
5:53 pm 17:53 Sunny 85 29.4 40 4.4 20 20 E 5 7 30.07 1018 10 16.0934 0 0
6:53 pm 18:53 Sunny 71 21.7 45 7.2 39 39 E 7 11 30.1 1019 10 16.0934 0 0
7:53 pm 19:53 Clear 69 20.6 42 5.6 38 38 E 6 9 30.1 1019 10 16.0934 0 0
8:53 pm 20:53 Clear 62 16.7 46 7.8 56 56 Calm 30.12 1020 10 16.0934 0 0
9:53 pm 21:53 Clear 59 15 44 6.7 58 58 NNE 6 9 30.13 1020 10 16.0934 0 0
10:53 pm 22:53 Clear 58 14.4 43 6.1 58 58 ESE 7 11 30.14 1021 10 16.0934 0 0
11:53 pm 23:53 Clear 57 13.9 44 6.7 62 62 E 8 13 30.14 1021 10 16.0934 0 0

Powered by AerisWeather